Lid_Strength_Index
0 1 1 1 1 1 1 1 -0 -0 -0 -0 0 0 0 1 2 3 5 6 7 7
0 1 1 0 0 1 0 0 0 -0 0 0 0 2 3 4 5 4 4 5 7 7
1 0 0 0 1 1 0 1 0 0 0 1 2 4 4 5 5 6 6 7 7 7
1 0 0 1 1 1 0 0 0 1 1 2 3 4 5 6 7 7 7 7 8 7
1 1 1 1 0 0 1 0 0 1 2 3 4 5 6 6 7 8 8 9 10 10
1 1 1 1 1 0 1 0 1 2 3 4 4 5 6 7 8 8 9 9 10 11
1 1 1 1 1 2 2 2 3 4 5 6 7 7 7 7 8 8 9 9 10 10
1 1 1 1 3 3 4 4 5 6 7 7 8 7 7 8 8 9 10 10 9 9
1 1 1 2 4 5 6 7 7 8 8 9 9 9 8 8 8 8 8 9 10 9
1 2 3 4 6 6 7 8 9 9 9 10 8 9 9 10 9 9 10 10 10 10
1 3 4 6 7 8 9 9 9 9 9 10 9 9 9 10 10 10 10 9 10 9
3 5 7 8 9 9 9 9 9 8 9 9 10 9 10 10 10 10 10 8 8 8
4 6 8 8 9 9 9 9 9 10 9 9 9 10 10 9 9 9 9 9 9 12
6 8 9 9 9 9 9 10 9 10 10 10 10 10 11 11 7 8 8 8 7 7